www.pogodaiklimat.ru

Погода и климат >> Архив погоды >> Мексика >> Altar Son


ПОГОДА в Altar Son

  • Прогноз погоды в Altar Son
  • Монитор погоды в Altar Son
  • Климат города

АРХИВ ПОГОДЫ в Altar Son

Время (UTC), дата Ветер
(напр.,м/с)
 
Видим.   Явления Облачность Т
(С)
Тd
(С)
f
(%)
Тe
(С)
Тes
(С)
Комфортность P
(гПа)
Po
(гПа)
Тmin
(С)
Tmax
(С)
R
(мм)
R24
(мм)
S
(см)
15 20.05 ЮВ 1 30 км ясно +15.0 +2.8 44 +16 +22 1009.0 962.4
18 20.05 Ю 1 30 км ясно +28.0 +10.3 33 +28 +51 опасность
солнечного
удара
1008.0 962.0 +14.0 +28.5
21 20.05 Ю 1 30 км ясно +35.4 +6.6 17 +33 +55 опасность
солнечного
удара
1007.0 961.4
00 21.05 З 1 30 км ясно +37.6 +8.6 17 +36 +42 очень
жарко
1006.0 961.0 +14.0 +38.0
03 21.05 С 1 20 км ясно +30.0 +5.4 21 +28 +28 жарко 1005.0 960.4
12 21.05 СВ 1 20 км ясно +17.0 +4.8 44 +18 +18 1007.9 960.5 +16.8 +38.0
15 21.05 СВ 1 30 км ясно +20.6 +6.2 39 +23 +29 комфорт 1007.4 961.7
18 21.05 Ю 1 30 км ясно +32.4 +7.0 21 +31 +53 опасность
солнечного
удара
1005.3 960.7 +16.0 +32.5
21 21.05 Ю 5 30 км ясно +36.0 +7.8 18 +34 +44 очень
жарко
1004.7 960.6
00 22.05 Ю 2 30 км ясно +34.8 +7.6 19 +33 +38 жарко 1004.0 960.1 +16.0 +41.1
03 22.05 Ю 2 10 км ясно +29.0 +7.2 25 +28 +28 жарко 1004.2 960.4
12 22.05 СВ 1 20 км ясно +18.0 +5.6 44 +19 +19 1005.7 960.3 +17.8 +36.1
15 22.05 СВ 1 30 км ясно +21.8 +6.9 38 +23 +29 комфорт 1006.9 961.4
18 22.05 З 1 30 км ясно +29.4 +9.5 29 +29 +52 опасность
солнечного
удара
1007.2 962.5 +16.6 +29.5
21 22.05 Ю 5 30 км ясно +33.4 +9.8 24 +33 +43 жарко 1006.2 961.9
00 23.05 З 4 30 км ясно +32.0 +8.0 23 +31 +34 жарко 1005.7 961.6 +16.6 +34.6
03 23.05 З 1 10 км ясно +26.0 +8.7 33 +26 +26 жарко 1006.0 961.9
12 23.05 В 1 20 км ясно +17.0 +5.2 46 +18 +18 1008.2 963.0 +16.8 +34.6
15 23.05 В 1 30 км ясно +19.2 +5.7 41 +21 +27 комфорт 1009.7 964.0
18 23.05 Ю 1 30 км ясно +31.0 +7.9 24 +30 +52 опасность
солнечного
удара
1008.9 963.9 +14.8 +31.5
21 23.05 ЮВ 2 30 км ясно +35.6 +9.7 21 +34 +53 опасность
солнечного
удара
1007.7 963.3
00 24.05 З 5 30 км ясно +35.0 +8.6 20 +33 +36 жарко 1007.1 963.0 +14.8 +36.5
03 24.05 З 1 10 км ясно +27.6 +9.2 31 +28 +28 жарко 1008.7 964.6
15 24.05 СВ 1 30 км ясно +21.0 +7.9 43 +23 +30 комфорт 1012.3 966.7
21 24.05 З 2 30 км ясно +35.0 +9.7 21 +34 +53 опасность
солнечного
удара
1012.0 967.2
00 25.05 З 2 30 км ясно +36.4 +8.8 19 +35 +40 очень
жарко
1009.7 965.4 +15.2 +37.6
03 25.05 З 2 10 км ясно +31.2 +6.4 21 +30 +30 жарко 1009.8 965.7
15 25.05 СВ 1 30 км ясно +15.0 +2.8 44 +16 +22 1014.4 968.0
18 25.05 ЮВ 1 30 км ясно +31.2 +6.4 21 +30 +52 опасность
солнечного
удара
1013.0 967.0 +14.0 +31.5
21 25.05 Ю 1 30 км ясно +33.0 +11.3 27 +33 +55 опасность
солнечного
удара
1012.0 966.6
00 26.05 ЮЗ 1 30 км ясно +37.2 +7.8 17 +35 +41 очень
жарко
1011.0 966.3 +14.0 +38.0
03 26.05 С 1 20 км ясно +28.0 +10.3 33 +28 +28 жарко 1010.0 966.0
15 26.05 СВ 1 30 км ясно +21.0 +7.9 43 +23 +30 комфорт 1009.0 963.0
18 26.05 В 1 30 км ясно +28.0 +10.3 33 +28 +51 опасность
солнечного
удара
1008.0 962.5 +20.0 +28.5
21 26.05 ЮВ 1 30 км ясно +32.0 +8.0 23 +31 +53 опасность
солнечного
удара
1007.0 962.3
00 27.05 Ю 1 30 км ясно +35.0 +8.6 20 +33 +40 жарко 1006.0 962.0 +20.0 +35.5
03 27.05 С 1 20 км ясно +26.0 +8.7 33 +26 +26 жарко 1005.0 961.5

 

Местоположение метеостанции Altar Son (Мексика): широта 30.71 долгота -111.84 высота над уровнем моря 397 м.

В архиве по умолчанию представлена погода в Altar Son за последнюю неделю. Архивные данные за месяц целиком и за предыдущие месяцы, начиная с января 2011 года, Вы можете получить, выбрав интересующий диапазон дат из раскрывающегося списка и нажав кнопку "Ввод!".


*Определитесь, кто Вы:
робот инопланетянин человек

Внимание! Время в таблицах - всемирное. Для получения местного времени необходимо прибавить поправку, которая в Altar Son равна -8 ч.

Смотрите также архив погоды в соседних городах и на ближайших метеорологических станциях:

Погода в Puerto Penasco (Мексика) (176 км)
Погода в Hermosillo (Мексика) (196 км)
Погода в Hermosillo la Magna (Мексика) (201 км)
Погода в Pilares de Nacoz (Мексика) (210 км)
Погода в San Felipe (Мексика) (285 км)
Погода в Guaymas (Мексика) (324 км)
Погода в Empalme (Мексика) (326 км)
Погода в Ejido Nuevo Leon (Мексика) (362 км)
Погода в Nueva Casas Grandes (Мексика) (379 км)
Погода в Santa Rosalia (Мексика) (384 км)

Пояснения к столбцам:

Ветер - указаны скорость ветра в м/с - средняя за 10 мин, порывы в срок и между сроками (в фигурных скобках) и направление, откуда дует ветер: С - северный, СВ - северо-восточный, В - восточный, ЮВ - юго-восточный, Ю - южный, ЮЗ - юго-западный, З - западный, СЗ - северо-западный.
Видимость - горизонтальная дальность видимости в метрах или километрах. При видимости от 1 до 10 км при отсутствии осадков обычно наблюдается дымка, при ухудшении видимости до 1 км и менее - туман. В сухую погоду видимость может ухудшаться дымом, пылью или мглою.
Явления - указаны атмосферные явления, наблюдавшиеся в срок или в последний час перед сроком; фигурными скобками обозначены явления, наблюдавшиеся между сроками (за 1-3 часа до срока); квадратными скобками обозначены град или гололедные отложения с указанием их диаметра в мм.
Облачность - указаны через наклонную черту общая и нижняя облачность в баллах и высота нижней границы облаков в метрах; квадратными скобками обозначены формы облаков: Ci - перистые, Cs - перисто-слоистые, Cc - перисто-кучевые, Ac - высококучевые, As - высокослоистые, Sc - слоисто-кучевые, Ns - слоисто-дождевые, Cu - кучевые, Cb - кучево-дождевые. Подробнее классификацию облаков см. в Атласе облаков (PDF).
T - Температура воздуха - температура, измеренная на высоте 2 м над землей.
Td - Температура точки росы - температура, при понижении до которой содержащийся в воздухе водяной пар достигнет насыщения.
f - Относительная влажность воздуха - влажноcть воздуха, измеренная на высоте 2 м над землей.
Te - Эффективная температура - температура, которую ощущает одетый по сезону человек в тени. Характеристика душности погоды. При расчете учитывается влияние влажности воздуха и скорости ветра на теплоощущения человека.
Tes - Эффективная температура на солнце - температура, которую ощущает человек, с поправкой на солнечный нагрев. Характеристика знойности погоды. Зависит от высоты солнца над горизонтом, облачности и скорости ветра. Ночью, в пасмурную погоду, а также при ветре 12 м/с и более поправка равна нулю.
P - Атмосферное давление - приведенное к уровню моря атмосферное давление.
Po - Атмосферное давление - измеренное на уровне метеостанции атмосферное давление.
Tmin - Минимальная температура - минимум температуры воздуха на высоте 2 м над землей.
Tmax - Максимальная температура - максимум температуры воздуха на высоте 2 м над землей.
R - Количество осадков - Количество выпавших осадков за период времени, мм. При наведении курсора мыши на число - период времени, за который выпало указанное количество осадков.
R24 - Количество осадков - Количество выпавших осадков за 24 часа, мм.
S - Снежный покров - Высота снежного покрова, см. При наведении курсора мыши на число - состояние снежного покрова и степень покрытия местности в баллах.